GFSGBSN_prec_cthk_066.txt.gz
RH
45 47 48 47 42 36 37 34 33 29 30 30 34 36 38 40 38 40 38 41 41 41 39 36 32 29 28 28 25 20 24 23 17 16 17 17 21 26 30 33 34 39 43 44 41 46 47
29 34 38 41 47 47 44 40 36 34 30 29 30 31 35 36 39 38 40 37 42 44 43 40 35 31 32 30 25 21 22 23 18 16 19 21 26 27 32 32 35 45 47 51 50 50 53
21 20 23 25 30 35 42 45 45 40 34 31 29 28 29 32 36 38 41 40 42 43 43 41 38 34 33 31 27 22 24 24 20 18 22 23 26 29 33 34 37 43 47 50 53 55 51
20 20 18 21 22 24 25 29 36 41 40 34 30 28 27 27 30 33 39 41 36 42 42 42 39 34 34 31 27 22 22 23 23 21 24 24 27 29 32 33 35 41 40 49 54 55 54
20 19 18 16 17 19 20 23 23 26 31 35 33 29 29 28 27 30 37 39 36 39 41 38 37 35 33 31 28 23 22 23 24 23 24 25 31 33 33 33 36 40 45 47 50 54 55
20 19 18 18 17 16 15 22 23 21 23 25 30 29 27 28 30 31 34 36 35 39 41 37 37 38 32 32 28 24 23 23 25 25 26 29 34 37 34 35 38 40 38 41 50 56 52
14 18 18 18 20 19 16 17 25 28 21 21 24 27 27 24 29 33 36 38 40 39 44 38 36 37 35 35 29 25 24 25 25 26 28 31 36 40 37 35 38 41 44 49 50 48 49
9 9 12 17 18 20 19 18 16 23 28 21 20 24 26 24 24 34 39 45 43 43 42 43 36 38 40 36 34 29 25 26 25 26 28 33 36 41 39 40 41 43 46 48 48 47 45
9 9 9 14 18 19 18 20 20 18 24 26 21 19 23 23 26 29 37 44 42 48 45 47 39 40 33 30 34 33 26 26 24 26 26 33 36 38 42 43 43 45 49 48 46 46 45
10 10 11 13 19 20 19 17 22 21 20 26 27 21 20 20 24 30 38 42 48 48 49 40 44 37 42 30 33 30 26 25 24 25 27 31 34 37 40 41 42 45 45 46 44 43 48
12 14 14 16 19 23 22 20 19 25 23 23 27 27 24 21 30 33 40 43 51 52 44 36 44 44 42 40 31 28 27 25 23 25 28 30 31 34 39 41 41 45 43 45 46 48 44
22 23 26 28 28 30 31 31 28 28 28 24 28 30 29 23 23 28 39 48 53 57 50 35 44 48 44 42 37 29 25 25 25 28 26 32 31 33 39 40 43 44 46 46 47 49 50
35 39 44 44 45 43 40 40 38 37 35 30 28 35 33 31 22 33 41 53 61 56 35 34 44 48 40 39 36 27 25 26 24 29 28 29 30 32 38 43 44 45 47 49 51 49 47
58 62 65 66 67 63 61 57 58 53 47 40 33 41 38 38 28 33 47 59 58 34 36 41 43 49 45 35 32 30 26 26 25 24 29 31 33 30 31 39 44 46 46 50 46 43 40
80 80 79 79 80 79 77 72 66 68 62 51 41 49 40 42 32 37 53 59 38 39 41 40 48 50 50 39 32 30 27 23 22 24 26 30 30 29 32 37 41 49 46 46 50 49 45
90 88 86 85 84 85 86 82 81 77 75 65 51 60 47 42 40 45 55 44 36 39 42 47 46 49 53 47 32 29 28 23 25 23 25 28 31 28 34 39 44 47 48 49 48 54 48
88 90 91 90 89 89 91 91 91 87 81 79 67 66 52 43 50 57 53 38 35 46 42 44 52 51 47 50 41 31 27 24 22 24 25 29 29 34 34 38 44 47 47 49 51 47 49
82 84 86 92 96 96 95 96 97 97 94 89 74 68 54 52 62 59 45 32 38 42 49 47 53 56 60 54 45 36 29 22 22 23 24 28 32 33 32 37 39 47 49 49 49 50 48
85 84 81 82 89 98 97 98 99 99 98 97 80 72 72 68 57 53 37 40 37 44 41 49 50 53 59 58 55 44 30 25 25 26 25 29 30 36 35 34 37 37 39 44 46 49 46
87 89 89 84 84 90 99 98 99 99 99 99 98 84 83 73 49 32 37 48 47 45 42 46 49 51 62 54 57 57 42 30 26 28 29 29 31 32 33 30 33 33 34 37 41 49 42
86 89 93 91 89 88 96 99 98 99 99 99 97 82 61 62 60 35 35 44 45 46 38 44 52 52 56 63 56 58 50 42 33 34 33 33 35 33 31 30 33 30 28 31 33 34 39
77 69 60 71 88 95 92 99 99 98 99 99 91 81 67 63 49 41 29 40 52 42 39 38 43 48 50 66 60 60 58 49 44 40 39 36 39 36 35 33 33 34 30 32 34 37 39
71 70 73 69 59 77 91 98 99 98 99 95 87 83 79 59 57 56 40 29 41 46 42 39 40 44 48 58 76 70 68 60 53 47 45 42 42 42 38 39 41 44 33 34 36 36 37
74 75 78 82 78 70 84 92 99 98 98 87 78 81 84 68 68 53 41 31 32 39 52 48 48 42 44 57 70 74 72 64 59 52 48 50 45 46 46 52 65 29 32 35 37 34 33
95 89 87 92 82 80 82 90 99 98 98 96 83 80 80 75 56 48 50 42 37 41 58 57 50 36 41 55 61 73 74 71 63 61 56 52 51 52 62 50 40 36 33 36 40 38 36
81 89 93 98 83 80 83 93 99 98 98 97 91 85 86 72 48 41 52 52 43 39 57 59 55 39 42 52 60 64 86 74 66 70 63 59 57 56 61 56 65 34 32 38 42 38 33
78 86 87 98 82 73 78 95 99 99 98 97 95 88 85 67 55 60 67 65 49 45 48 64 54 42 45 54 70 63 68 69 78 77 79 72 69 69 64 65 49 37 37 37 46 32 40
93 79 88 99 81 78 86 98 98 98 98 96 90 87 78 68 64 64 78 82 67 57 53 48 54 44 41 54 67 57 60 58 65 74 76 72 71 72 68 74 68 40 42 43 34 41 41
70 75 95 96 80 75 72 95 98 98 98 97 96 90 71 74 80 79 79 92 78 49 56 51 27 38 42 42 60 60 65 67 49 59 62 77 68 66 58 53 49 48 47 44 41 46 47

GFSGBSN_prec_cthk_069.txt.gz
RH
39 41 42 43 47 48 46 44 42 37 35 33 31 30 29 31 31 32 33 35 35 36 38 38 37 37 33 35 32 29 26 25 23 20 19 17 18 21 30 35 34 37 48 40 37 34 36
32 29 30 32 32 35 39 43 46 44 39 36 32 31 31 32 31 31 31 34 35 33 35 40 41 41 39 36 32 29 24 27 25 21 19 18 23 28 29 32 33 52 41 45 38 39 43
25 21 19 20 22 23 24 27 30 35 39 41 36 31 30 30 30 30 30 32 34 31 34 37 44 44 41 34 33 32 26 29 26 22 21 21 23 26 34 34 34 36 36 68 63 56 55
22 20 19 18 18 17 20 22 23 23 25 28 34 34 31 29 29 29 29 31 30 30 32 34 37 43 44 34 33 30 28 30 27 24 21 23 24 26 30 34 33 36 47 47 56 48 49
19 21 18 16 14 16 16 17 19 19 20 22 22 25 27 26 26 27 28 30 32 33 33 31 33 41 39 35 31 31 28 29 29 25 22 22 24 30 37 32 41 45 40 46 45 52 50
9 10 16 17 16 14 16 16 14 16 22 19 20 20 21 23 21 22 25 27 31 30 34 35 35 41 33 33 34 34 30 28 31 28 25 23 27 35 40 42 45 44 43 41 38 53 49
8 8 8 8 12 13 13 15 16 15 20 25 21 18 18 21 19 18 21 29 42 51 51 38 39 34 36 37 35 34 33 29 31 30 26 26 31 39 47 46 38 38 41 43 47 47 42
9 8 8 8 8 8 9 12 14 16 17 21 24 21 18 18 16 15 22 29 42 42 38 42 37 35 39 39 40 36 37 31 31 29 28 35 34 40 41 32 34 36 45 47 47 43 39
9 9 9 8 8 8 9 14 14 13 16 17 21 26 22 20 16 10 22 31 36 35 43 36 36 32 33 35 41 41 37 34 33 30 29 31 39 39 36 36 38 44 47 51 46 47 44
10 10 9 9 9 9 10 16 18 16 14 17 19 24 26 25 15 19 22 30 32 39 40 31 43 36 38 36 36 38 36 33 35 31 30 29 35 35 34 38 44 46 47 41 41 42 63
10 10 10 11 13 14 15 16 19 18 16 16 21 24 30 26 32 29 39 29 32 39 31 31 39 41 39 38 32 32 34 32 35 30 29 27 28 35 32 37 42 43 43 39 40 42 44
11 12 14 16 17 20 21 22 23 27 26 21 22 24 32 29 27 29 39 31 37 39 35 32 39 40 43 41 35 37 34 34 33 33 28 27 31 32 31 38 40 42 42 42 42 45 51
19 20 20 22 25 29 33 36 35 34 35 33 29 25 33 35 28 34 39 43 43 34 24 27 40 44 44 44 43 41 39 40 33 35 31 27 31 30 33 35 39 41 47 56 53 54 49
30 32 34 38 44 49 49 52 50 49 48 46 40 34 32 35 31 40 54 56 40 19 24 35 40 48 45 43 43 47 41 44 34 31 32 30 33 29 31 33 42 40 46 57 58 56 49
43 52 63 69 71 73 71 69 69 69 65 65 60 48 40 41 36 45 62 73 24 18 24 26 40 52 47 45 44 45 45 43 30 29 27 29 32 34 35 31 39 47 45 48 56 50 48
79 82 84 85 86 87 86 83 81 82 81 82 74 66 49 53 45 53 72 61 30 19 21 34 33 46 49 46 45 44 40 38 32 30 27 33 37 34 37 35 34 42 49 50 45 54 59
89 89 87 87 88 89 92 92 89 91 94 95 88 75 61 68 62 69 66 44 40 31 29 39 42 38 52 53 45 49 45 36 31 30 29 32 33 42 38 33 36 36 44 47 49 53 57
91 90 89 87 86 84 87 92 95 96 99 99 98 85 76 79 73 70 53 34 40 39 41 49 56 49 47 57 51 45 54 41 32 29 30 29 33 42 40 35 33 48 43 46 52 50 49
91 90 87 88 87 85 83 87 92 99 98 99 97 94 87 78 68 62 35 30 41 48 43 56 58 46 53 61 57 46 51 46 39 30 31 32 37 41 42 37 38 37 43 53 53 51 53
87 85 84 86 86 85 86 87 90 94 99 99 99 96 93 82 61 48 36 33 39 36 54 52 61 56 52 50 58 58 55 55 43 32 31 34 33 35 36 36 40 35 35 41 49 55 45
86 85 87 88 89 88 87 87 93 96 96 99 97 81 75 78 69 54 53 44 39 33 39 57 69 62 58 57 50 63 65 64 56 35 38 39 38 38 32 38 42 38 36 36 38 40 43
89 88 90 89 89 90 91 89 93 97 99 99 94 76 76 76 75 64 57 49 45 34 30 41 60 59 62 63 64 69 71 69 60 52 38 40 44 40 38 37 43 40 32 31 31 33 32
84 85 85 84 84 82 90 90 95 99 99 98 87 81 79 78 80 80 54 44 39 41 36 38 49 63 63 66 75 71 69 75 70 69 48 46 47 46 43 41 41 45 31 34 34 34 36
71 69 74 82 84 83 82 98 97 99 99 97 78 83 87 83 86 61 61 50 45 37 40 39 63 58 56 74 66 81 66 73 72 67 62 55 53 48 55 54 60 42 33 34 34 36 38
85 75 63 62 66 75 81 77 99 98 99 97 91 91 83 88 76 78 67 57 58 49 55 51 42 69 65 81 59 62 82 76 67 67 65 62 57 57 63 52 40 40 36 32 32 34 36
93 94 96 94 85 84 82 79 82 99 99 98 97 91 90 85 74 77 80 72 64 59 52 56 53 58 80 68 64 55 64 75 82 73 68 64 61 61 60 57 59 41 37 35 34 43 31
98 91 82 90 98 80 87 90 75 85 96 99 98 95 91 81 82 82 79 80 63 55 50 52 66 68 59 60 71 58 51 60 77 95 83 78 77 76 65 66 50 42 39 38 45 34 37
80 84 83 80 95 86 86 91 86 79 89 99 95 94 88 88 84 85 85 82 69 58 62 51 75 74 81 65 62 57 62 69 59 66 83 76 73 79 72 76 73 52 45 45 36 42 42
97 86 93 76 82 98 96 94 86 87 95 98 98 96 94 90 88 91 84 73 60 55 59 54 75 52 53 62 56 48 69 67 58 63 63 89 78 74 67 68 61 57 52 51 49 47 51

GFSGBSN_prec_cthk_072.txt.gz
RH
38 45 48 50 39 41 45 47 46 44 41 39 36 34 33 32 31 29 29 30 30 29 29 31 31 33 31 35 35 34 32 29 27 24 22 22 19 19 22 33 41 38 40 45 37 34 30
30 29 29 34 43 41 35 36 38 37 38 41 40 37 34 33 33 32 31 31 31 30 29 30 32 32 36 38 36 36 33 29 28 25 24 22 18 21 26 30 35 37 42 36 49 52 44
33 33 24 22 22 33 35 28 27 29 29 27 30 32 35 35 32 31 32 32 32 30 29 30 31 34 36 35 32 38 36 32 30 29 26 23 19 25 29 34 36 35 26 49 52 52 34
43 33 29 27 20 18 19 21 19 20 21 27 23 21 20 22 27 31 31 30 32 30 31 31 33 33 33 31 34 37 37 34 32 30 26 28 24 23 25 30 28 32 40 47 44 48 47
15 21 27 22 20 18 21 19 15 15 18 19 20 20 21 18 16 17 24 26 28 29 29 32 32 37 36 33 33 32 34 34 34 32 28 26 22 24 28 33 38 41 42 46 50 44 48
12 11 10 10 14 19 16 14 16 16 15 16 18 18 18 19 18 13 12 16 20 28 37 36 36 39 36 31 34 36 32 33 36 34 31 27 23 24 30 37 44 52 44 48 43 49 46
10 9 9 8 8 7 8 11 8 9 13 13 17 18 18 17 18 14 8 9 24 44 51 46 40 39 33 37 36 35 36 33 36 37 34 29 26 26 34 47 44 40 39 41 43 48 43
10 9 9 8 8 8 7 7 8 9 9 12 13 17 17 17 16 15 9 16 20 37 32 29 34 32 35 38 40 36 37 34 35 37 35 35 29 26 37 45 34 32 33 36 42 45 38
10 10 9 9 9 8 8 8 8 10 14 10 11 13 16 18 16 11 10 10 27 32 33 23 24 26 32 31 38 38 38 36 35 38 36 35 29 36 35 39 32 32 38 45 50 47 46
11 10 10 10 9 9 9 9 10 10 17 16 12 13 15 20 18 21 14 16 26 27 31 16 18 25 31 32 30 35 40 40 38 37 35 36 29 40 39 33 38 40 45 47 40 42 50
9 10 10 10 10 10 11 12 12 12 14 18 16 13 16 21 22 25 43 38 40 36 25 12 19 27 30 31 30 32 37 43 42 37 37 32 31 32 36 29 35 37 38 43 39 40 43
9 9 9 10 12 14 17 19 19 18 18 19 21 18 17 20 24 19 38 47 39 48 25 14 22 26 29 32 34 34 36 39 39 39 40 34 32 29 32 33 31 35 38 38 37 40 46
10 10 11 15 19 19 20 20 23 26 29 28 30 27 21 23 29 41 48 56 58 47 14 13 23 28 29 33 36 37 38 40 40 39 39 37 31 32 33 32 36 35 40 46 57 52 51
15 16 18 21 24 26 28 30 32 34 36 41 43 41 31 27 33 43 49 71 69 21 20 21 20 31 30 35 39 38 40 39 41 39 42 42 35 26 32 31 34 36 40 52 85 66 53
18 21 27 32 33 35 37 40 45 53 57 55 60 56 49 39 36 49 61 70 52 22 18 22 39 36 42 36 39 44 40 41 42 41 42 44 32 27 33 31 35 43 39 38 57 62 61
33 39 41 42 44 52 63 74 80 81 82 82 76 72 64 61 46 59 69 60 38 27 26 40 38 40 49 45 39 45 45 42 44 47 44 45 42 33 33 36 29 41 51 46 47 58 60
46 53 56 60 71 86 93 94 97 98 98 98 94 84 73 79 70 71 62 43 27 22 34 54 48 42 34 56 47 40 44 48 52 52 51 42 45 40 40 35 34 31 41 50 46 45 50
71 78 91 95 97 98 97 97 97 98 98 98 99 89 85 92 87 65 51 41 27 25 28 54 55 52 48 47 66 46 46 47 52 54 56 43 46 47 46 35 35 37 35 40 49 47 58
93 96 97 98 98 98 97 97 98 98 99 99 97 95 94 93 79 70 60 52 53 43 37 49 50 57 65 64 55 58 53 52 61 55 53 47 44 52 53 46 43 32 36 43 39 39 46
97 97 96 96 96 95 96 97 98 98 99 99 98 96 94 91 73 75 74 64 60 46 41 36 55 63 77 69 66 66 60 53 57 57 54 53 48 45 51 51 40 39 35 48 53 55 51
93 92 90 91 90 90 93 96 97 98 99 99 95 79 74 77 76 75 75 68 58 48 34 36 54 56 78 85 62 67 72 66 56 59 54 57 59 51 49 44 47 41 38 36 41 45 50
89 88 87 87 87 88 89 90 94 98 99 99 90 76 73 73 77 88 80 69 57 50 44 27 41 53 68 87 87 69 61 68 59 59 57 56 61 56 55 47 45 47 48 41 35 35 39
87 86 87 86 89 88 88 90 93 96 99 97 83 77 82 75 81 75 62 71 65 57 47 39 26 28 59 71 82 87 82 71 62 61 64 59 57 50 53 52 49 47 47 43 39 41 40
84 82 81 83 82 82 89 93 96 98 98 98 85 89 91 79 67 64 75 74 69 60 52 47 48 32 34 75 88 87 89 84 75 66 70 67 60 52 67 61 59 43 39 39 40 37 37
55 58 56 56 62 80 90 92 97 99 98 98 96 93 87 83 70 72 70 69 78 78 66 51 46 33 28 62 78 82 92 85 70 66 75 72 67 76 69 64 49 42 42 44 39 34 36
71 75 75 71 73 67 63 84 94 96 99 99 97 94 91 84 73 75 80 81 76 71 72 44 40 50 49 57 72 90 91 72 77 63 67 74 72 77 82 66 64 52 42 42 41 43 37
82 81 84 84 86 83 82 61 78 97 98 99 98 97 95 86 84 83 84 74 77 74 65 52 44 62 74 70 66 79 86 65 71 81 75 78 82 77 75 81 65 53 45 44 48 47 33
80 74 73 76 91 93 96 71 63 76 95 99 98 96 94 95 88 85 88 87 84 74 68 59 62 63 78 73 75 64 76 63 57 53 61 78 82 84 77 81 72 57 53 52 41 43 44
88 89 80 73 94 99 98 89 82 76 81 98 98 98 98 97 94 93 79 80 89 79 75 69 41 70 59 69 69 74 76 68 51 53 60 77 93 81 72 68 60 57 60 63 60 55 53

GFSGBSN_prec_cthk_075.txt.gz
RH
43 40 37 37 39 48 59 62 45 43 47 47 46 44 41 37 36 33 31 29 29 28 28 28 27 26 27 30 30 26 33 35 32 28 26 23 23 21 18 23 27 35 43 37 35 38 42
40 38 37 33 31 32 32 34 52 55 37 39 37 41 40 40 39 37 34 33 31 31 30 30 29 29 31 36 28 31 35 35 35 30 28 23 23 21 20 23 26 33 34 29 35 41 44
39 37 37 37 34 30 26 23 21 25 49 44 31 37 33 28 29 32 37 36 33 30 30 30 30 34 35 32 26 29 34 35 36 33 29 24 23 23 21 24 24 30 31 35 39 48 47
26 25 32 40 43 35 27 27 17 15 16 26 38 38 29 34 23 14 16 23 32 32 32 30 32 34 35 32 28 27 31 33 36 36 32 29 27 25 21 22 24 35 35 37 39 44 48
25 18 15 16 16 28 33 29 21 18 19 20 23 21 23 21 19 20 10 10 11 17 25 32 35 35 37 36 34 32 31 35 35 33 34 32 29 27 22 24 31 39 43 45 44 46 48
31 26 15 12 11 10 10 11 22 24 20 11 15 24 24 19 17 14 9 7 7 9 14 31 39 40 34 33 34 34 34 33 35 35 36 34 29 27 22 29 41 39 44 44 47 46 52
24 20 15 12 12 11 9 10 8 7 7 9 10 13 16 24 20 16 9 6 12 24 34 28 27 25 26 32 35 36 36 34 34 35 40 36 35 28 21 27 39 41 45 43 41 47 52
25 20 15 11 11 10 9 8 10 8 8 9 9 9 11 13 15 15 16 8 16 34 31 23 20 27 24 24 34 37 36 36 34 36 40 41 37 23 23 34 38 44 40 35 38 49 45
23 21 14 12 11 10 9 9 9 10 9 11 16 14 12 13 14 15 13 10 12 29 34 21 11 11 11 20 23 31 37 37 36 36 39 41 35 28 30 34 38 42 36 34 37 44 45
20 20 18 13 11 11 10 9 9 9 9 8 14 16 13 13 15 21 25 24 24 32 36 17 10 10 11 14 22 26 34 38 36 35 38 40 36 37 35 37 38 37 38 42 41 43 42
20 19 18 11 10 10 10 10 10 10 10 10 10 16 17 14 16 17 37 32 38 35 33 6 11 14 15 16 18 24 29 38 39 38 40 36 37 37 37 39 38 32 41 41 41 44 37
19 19 16 11 10 9 10 10 11 13 15 15 14 15 20 18 15 16 34 49 50 46 46 10 12 15 16 16 20 24 26 33 38 42 39 38 35 36 35 34 33 30 37 38 38 40 45
20 17 13 13 12 12 11 14 16 17 18 20 21 20 27 26 17 31 38 50 63 61 13 8 19 22 20 18 18 23 31 33 38 43 42 39 37 37 36 33 33 35 35 48 57 52 53
21 21 21 20 17 18 18 19 23 25 27 27 29 29 33 34 24 38 46 53 65 24 22 13 20 29 28 23 21 24 29 33 37 42 44 45 43 38 34 30 32 34 37 55 61 65 63
21 20 19 17 17 19 20 27 30 31 31 33 39 43 43 42 40 41 53 63 44 26 21 17 29 47 44 36 33 31 28 33 34 41 44 44 40 39 37 33 33 35 40 37 59 60 74
21 21 20 18 21 27 31 33 34 38 42 46 52 56 53 58 59 52 58 40 31 20 16 26 44 58 51 65 55 47 44 29 34 38 43 42 48 43 39 35 35 33 39 51 55 70 77
21 21 20 23 32 36 43 46 47 49 55 70 82 82 69 79 81 70 53 48 37 30 27 27 44 55 64 58 72 72 46 37 37 40 44 44 49 50 47 39 34 37 40 47 53 60 63
22 22 26 38 44 49 55 57 56 66 90 99 99 88 84 94 92 71 54 55 40 38 34 30 38 48 63 64 70 71 69 51 45 43 44 47 53 60 52 49 34 37 37 49 62 59 58
23 29 46 59 66 69 69 70 81 99 98 99 97 92 91 93 85 74 70 65 58 53 39 34 31 48 59 65 77 80 74 60 53 49 50 55 62 74 60 50 43 40 42 36 42 60 54
44 68 82 86 88 91 95 97 98 98 99 99 98 94 92 89 80 81 82 73 68 58 49 39 30 42 59 68 78 83 92 74 63 56 52 60 72 71 63 57 53 50 40 39 38 50 45
90 97 98 98 98 98 98 98 98 98 99 98 95 84 83 80 81 81 76 68 70 71 62 50 38 34 54 71 84 84 90 87 76 60 63 59 67 67 59 51 56 50 46 41 38 35 53
97 97 97 97 97 97 98 98 98 98 99 98 91 84 83 78 79 80 76 75 71 69 63 57 44 26 44 64 77 80 86 93 82 63 61 56 63 66 64 56 50 60 55 45 39 39 46
98 97 96 95 95 95 95 96 98 99 99 95 91 89 89 78 79 74 69 69 71 73 67 62 45 30 39 44 67 79 88 97 96 91 70 63 67 67 68 60 57 59 56 51 48 44 40
93 89 85 84 86 89 91 92 95 99 99 97 92 93 93 79 70 71 71 72 73 73 70 60 55 40 28 44 61 79 84 94 91 80 75 69 70 76 79 72 68 52 43 50 46 49 46
70 70 70 73 78 82 89 91 95 97 99 99 98 93 83 80 82 76 77 75 78 67 61 64 61 49 39 51 68 86 83 85 87 86 70 66 76 80 78 74 63 54 45 45 47 51 45
65 66 64 60 55 53 62 83 89 95 99 99 95 92 95 90 81 85 83 78 71 66 66 61 66 56 45 51 71 79 90 90 84 86 78 75 76 78 84 79 71 52 46 48 45 55 47
71 73 74 74 74 70 66 56 59 86 98 98 95 95 99 96 90 88 85 77 75 70 65 70 67 59 43 46 57 72 75 78 93 88 77 80 83 90 91 94 74 54 47 52 55 50 36
89 89 87 86 87 86 85 82 68 60 82 91 97 96 98 98 92 87 90 84 74 72 71 66 76 62 51 56 47 57 62 76 77 72 80 79 81 89 91 87 85 60 59 54 52 49 42
85 84 84 83 85 86 87 86 83 73 77 93 99 98 99 98 93 91 90 83 75 76 74 76 72 59 52 54 48 51 62 68 64 68 65 76 85 82 79 77 72 65 65 61 55 52 50

GFSGBSN_prec_cthk_081.txt.gz
RH
43 43 43 44 47 46 44 41 39 39 42 47 50 53 52 45 42 40 40 40 38 33 28 27 25 25 25 26 30 25 26 29 29 29 30 31 30 28 28 25 25 22 20 23 27 33 39
37 39 40 42 42 44 45 43 41 39 34 33 34 36 42 53 46 39 37 37 38 36 35 32 29 28 28 35 31 31 29 27 27 29 31 32 32 27 28 28 25 23 22 23 27 37 40
35 35 33 33 36 38 40 40 38 36 33 30 29 27 28 33 45 45 44 35 34 33 31 31 32 31 33 35 29 30 31 33 30 31 33 34 32 32 31 29 24 22 20 25 27 37 44
38 40 41 40 38 34 30 35 38 35 36 40 32 25 22 23 22 33 38 38 33 29 25 24 25 27 31 36 33 32 30 32 35 35 34 34 33 34 33 32 25 22 22 30 32 42 47
39 39 40 41 41 36 32 28 25 30 26 33 33 28 23 23 21 18 26 28 31 32 28 25 20 20 24 25 31 36 37 36 34 36 34 33 35 38 37 36 31 23 26 32 37 41 45
45 47 42 44 40 36 28 25 23 26 27 24 27 29 29 29 19 17 15 24 24 22 21 23 30 29 14 16 22 34 38 39 34 35 37 34 36 39 38 40 36 27 26 37 38 40 43
48 46 46 45 45 37 34 26 30 23 21 20 22 20 24 20 24 20 18 11 24 37 39 25 29 23 13 18 19 25 34 40 37 35 38 37 40 38 40 35 28 32 29 35 37 37 39
36 38 47 47 50 45 38 33 23 20 22 31 24 19 11 17 17 12 21 31 36 35 38 31 28 23 12 11 22 16 24 31 39 39 39 41 39 40 40 35 31 34 32 35 39 37 36
30 34 36 40 47 44 44 33 30 20 18 15 15 17 12 19 8 16 22 26 25 34 34 21 11 21 16 16 15 8 17 23 30 37 39 40 40 38 39 38 34 30 29 36 38 39 37
25 33 33 35 35 46 48 38 32 26 15 14 13 12 16 11 11 14 28 27 31 37 36 22 15 11 11 22 24 8 10 17 26 30 38 38 38 40 42 39 34 34 31 36 37 41 43
28 27 28 31 35 33 36 43 36 32 26 17 14 13 15 11 15 10 9 19 32 34 17 10 12 14 17 14 11 12 8 11 20 24 31 32 38 37 45 41 36 35 41 40 40 41 41
28 31 34 35 30 34 33 33 28 25 22 21 21 20 20 14 12 11 9 13 39 39 35 13 20 22 22 22 17 17 17 11 11 20 27 29 35 38 37 39 42 42 46 43 42 41 45
35 36 36 40 37 32 30 26 22 27 27 18 19 19 24 18 15 15 13 25 45 47 16 16 27 25 21 22 23 19 20 19 19 22 29 30 32 35 40 42 43 46 48 54 51 50 44
31 36 41 41 37 29 29 31 26 24 20 20 25 32 29 22 21 20 18 31 51 29 29 23 26 29 27 29 29 29 23 27 23 24 27 32 35 35 35 38 40 47 49 57 49 52 44
40 42 42 43 41 40 32 30 25 24 21 25 29 36 32 22 28 30 27 40 26 28 33 28 25 32 38 36 34 35 37 30 26 26 32 36 34 31 35 40 42 45 51 43 46 51 54
38 39 41 42 40 38 34 30 29 26 27 33 36 40 33 28 36 39 36 27 24 25 33 30 31 28 38 38 40 41 45 41 37 38 30 34 38 32 34 40 40 44 48 56 59 61 60
41 42 42 43 43 42 39 37 33 30 34 36 45 49 40 36 43 48 42 34 27 23 23 28 24 21 23 30 30 47 48 50 53 46 46 38 39 39 39 40 42 45 49 51 52 57 55
36 42 40 41 38 40 40 38 34 30 39 47 56 56 53 48 54 49 49 36 28 26 25 26 26 28 29 27 34 37 53 48 55 57 61 64 48 43 34 43 45 44 46 48 58 58 55
35 37 40 40 41 38 35 34 35 30 43 53 60 60 61 56 56 51 50 40 37 34 34 38 37 36 34 32 37 38 39 50 55 61 79 79 65 54 43 42 43 51 52 52 55 58 55
40 39 36 38 37 31 31 32 32 31 44 61 68 68 66 69 48 43 50 53 57 47 44 46 52 50 49 48 42 42 45 61 65 67 72 86 81 70 52 42 46 54 54 55 55 62 53
42 38 34 35 36 37 38 37 35 36 47 72 72 64 64 65 63 56 55 55 72 72 70 75 68 61 64 56 48 43 31 39 61 74 79 92 96 70 49 45 54 55 56 56 55 52 52
47 47 48 47 47 48 43 41 38 43 58 82 73 69 66 67 61 68 70 76 79 85 83 84 81 82 81 70 59 46 37 39 59 77 80 95 90 84 57 49 53 58 60 60 57 57 51
91 80 70 60 57 56 54 56 57 60 77 87 84 76 76 69 72 86 85 81 82 85 84 82 81 83 77 68 63 53 46 42 53 73 90 96 98 95 67 62 67 77 53 52 58 62 60
98 98 98 93 78 68 63 63 67 80 90 90 88 82 81 77 79 79 85 87 86 88 86 84 84 81 72 76 72 63 56 50 45 61 76 91 97 98 86 78 92 52 54 57 58 62 64
98 98 98 98 98 98 97 97 98 98 97 96 92 88 86 82 85 85 86 87 91 88 85 83 81 78 85 86 82 71 64 62 54 53 66 74 92 98 98 81 66 58 53 58 68 58 63
98 95 95 95 93 95 98 98 98 98 98 97 93 95 98 96 82 88 88 87 89 90 87 79 77 80 82 85 87 83 73 61 52 56 53 78 87 98 98 98 81 57 50 53 71 71 62
87 83 80 81 85 87 88 94 98 98 98 96 96 99 99 95 90 88 85 89 88 88 87 83 81 79 81 88 89 86 82 59 61 67 81 87 88 92 94 97 85 62 57 63 88 69 60
67 70 72 74 77 84 86 85 87 96 98 96 96 98 98 96 92 86 86 87 88 87 87 83 85 80 82 83 81 80 79 64 57 57 66 66 77 80 88 98 93 73 66 70 73 70 65
72 70 71 74 76 76 77 77 79 83 95 98 96 96 99 99 93 91 88 88 81 80 81 86 85 84 78 77 72 70 75 74 63 56 53 66 59 69 76 93 87 74 66 73 78 79 69

GFSGBSN_prec_cthk_087.txt.gz
RH
37 35 36 34 34 33 34 35 37 38 38 40 38 37 36 35 31 31 35 39 39 37 36 32 33 33 34 33 34 30 27 31 37 38 34 31 28 28 29 29 30 28 28 28 24 18 19
38 36 36 36 34 33 32 32 31 30 29 30 30 30 30 30 29 29 29 31 32 33 38 36 33 33 33 36 40 36 32 31 34 36 35 33 32 30 30 30 31 29 30 29 25 19 18
42 40 39 36 37 36 35 34 32 30 27 24 23 25 27 27 28 28 27 25 25 25 27 36 33 32 32 36 35 40 35 31 31 31 31 33 33 33 31 31 31 32 33 30 25 21 19
40 41 40 41 35 37 35 32 32 31 29 25 23 24 25 28 29 28 28 25 22 21 22 26 33 35 32 33 30 33 35 37 34 34 32 32 35 35 33 33 34 36 36 34 24 24 25
33 31 34 35 35 36 38 38 33 32 31 27 23 24 25 26 27 32 30 30 30 25 23 21 24 31 32 36 35 35 37 37 38 38 41 38 39 41 38 37 36 37 38 37 27 27 27
31 30 30 30 31 31 33 34 37 32 30 31 27 26 24 27 27 27 27 27 32 36 28 25 26 31 30 31 35 37 39 37 40 43 42 45 45 45 44 40 36 39 42 36 32 28 29
21 27 28 28 28 27 27 28 30 34 30 28 30 27 28 26 26 30 28 31 34 36 33 34 28 23 21 25 28 32 41 38 40 40 44 49 47 48 44 43 41 40 40 35 33 29 29
27 25 27 27 26 28 30 27 27 28 30 28 28 24 24 26 27 23 26 38 41 40 47 36 29 24 18 27 33 28 30 33 32 36 42 49 49 47 47 44 44 44 42 37 33 33 31
28 28 27 24 25 23 34 36 27 27 27 28 24 26 20 22 25 31 30 44 42 37 45 37 33 29 26 22 26 25 26 36 32 29 34 41 45 46 47 46 48 47 45 41 37 35 34
24 27 27 27 26 24 29 33 31 26 27 26 26 21 23 19 24 31 36 38 40 49 47 27 36 34 30 30 21 21 18 20 38 28 24 32 32 43 46 44 44 46 44 43 40 40 36
28 28 23 23 22 21 24 29 33 28 26 27 27 22 19 22 23 29 25 24 34 54 33 17 27 35 33 30 22 23 30 21 25 26 23 27 24 27 39 49 51 46 44 44 43 41 40
27 25 28 28 29 26 24 30 36 36 34 28 28 22 19 18 24 27 24 21 38 57 40 24 34 31 35 34 27 24 27 25 30 27 28 25 23 26 32 38 46 47 48 49 48 46 48
40 33 28 29 29 30 34 31 38 40 38 35 23 24 21 21 22 29 31 28 56 54 24 30 29 28 26 32 31 31 28 28 24 26 31 28 24 19 26 37 45 48 53 53 56 54 46
35 32 28 27 27 26 32 37 42 41 38 34 27 28 23 21 22 28 38 45 57 33 34 31 31 30 30 24 34 39 31 34 35 28 27 29 27 21 18 23 39 49 52 54 53 56 48
43 45 45 44 42 39 37 41 45 40 37 41 39 31 23 23 27 36 36 59 40 37 31 28 25 33 35 28 27 31 40 44 41 41 34 38 26 20 18 15 18 42 53 48 53 62 62
42 41 39 35 35 37 38 50 49 50 53 52 40 35 29 32 37 42 44 32 41 48 45 32 26 26 31 34 28 25 38 43 50 42 45 46 42 31 31 26 27 32 43 54 55 52 55
43 50 47 45 43 51 42 50 51 52 53 57 46 50 38 37 46 53 48 37 34 35 36 39 38 27 27 30 35 34 33 36 41 45 45 44 54 39 34 36 34 34 39 48 51 52 48
43 46 49 59 58 54 54 54 49 48 56 61 57 61 48 52 54 50 51 44 35 31 29 29 27 27 25 23 24 21 26 27 25 43 52 51 57 61 45 39 42 39 41 44 50 48 60
54 48 58 62 62 58 55 51 52 53 67 69 65 63 60 69 62 53 51 48 41 32 34 40 36 31 25 20 16 20 22 30 33 32 37 40 58 52 44 36 40 45 50 48 50 51 45
61 62 62 63 59 52 47 60 59 59 68 73 72 71 65 67 66 62 58 52 50 43 36 35 41 35 34 31 27 32 34 31 34 34 36 36 45 39 44 61 56 50 50 56 66 53 47
59 60 61 59 56 51 55 52 47 59 70 79 75 66 60 65 63 62 59 55 53 50 46 43 43 36 41 43 38 41 39 31 28 35 30 39 56 55 52 51 53 55 48 51 53 52 48
61 60 58 58 56 58 56 51 57 55 73 78 69 62 68 64 63 67 75 59 54 52 54 46 44 40 42 45 43 42 50 53 45 46 54 57 61 64 62 57 58 54 44 41 45 49 48
52 51 49 50 61 69 68 63 59 64 69 72 67 63 69 68 62 78 65 55 59 59 54 51 45 50 58 63 63 63 60 55 54 54 53 50 54 55 50 53 58 56 43 55 46 40 37
47 44 45 58 74 78 74 62 62 62 66 65 60 64 71 68 64 59 53 62 65 54 48 51 50 60 80 78 73 69 62 58 60 59 60 59 63 59 54 52 65 23 39 55 54 37 47
53 55 64 77 84 88 92 94 74 61 66 64 64 63 60 60 59 59 64 62 61 61 57 56 61 80 89 87 85 81 76 72 63 63 62 61 62 59 62 53 40 30 47 73 75 50 52
70 79 89 94 97 98 98 98 98 94 73 75 63 61 62 68 48 46 53 60 70 70 70 67 93 95 98 95 94 88 78 73 66 67 60 65 65 66 65 72 66 44 61 69 72 66 76
98 98 98 98 98 98 98 98 98 98 93 75 66 63 70 61 59 66 59 66 75 75 80 93 95 97 97 93 92 88 77 71 75 68 79 80 78 76 78 78 52 61 69 75 80 67 86
98 97 97 97 98 98 98 98 99 98 94 88 73 70 69 68 67 85 93 86 82 86 96 97 97 95 96 95 92 88 80 74 69 68 79 74 76 75 81 91 84 79 80 80 78 81 91
94 96 95 96 95 97 97 98 98 98 98 95 94 86 90 94 92 86 84 89 90 90 94 97 93 95 96 97 89 84 82 81 74 71 63 69 64 63 65 73 91 77 74 75 75 77 82